Flag for U.S.A. Weather past 2 weeks in Manassas, Virginia, U.S.A.

Now
70 °F

Clear.


Feels Like: 70 °F
Forecast: 65 / 87 °F
Wind: 3 mph from Southeast

Location: Manassas Municipal

Current Time: Aug 30, 2015 at 12:29:01 AM

Latest Report: Aug 29, 2015 at 11:55 PM


Visibility: 10 mi

Pressure: 30.13 "Hg

Humidity: 88%

Dew point: 66 °F

Location of ManassasLocation

Historic Weather in Manassas — Graph

°F

Manassas temperature yesterday

Maximum temperature yesterday: 88 °F (at 3:45 PM)
Minimum temperature yesterday: 63 °F (at 2:55 AM)
Average temperature yesterday: 72 °F

Past Weeks' High & Low Weather Summary

 TemperatureHumidityPressure
High93 °F (Aug 17, 2:50 PM)100% (Aug 14, 10:55 PM)30.23 "Hg (Aug 14, 10:55 PM)
Low55 °F (Aug 23, 6:30 AM)35% (Aug 21, 3:55 PM)29.82 "Hg (Aug 24, 4:45 PM)
Average71 °F82%30.05 "Hg
* Reported Aug 14 10:35 PM — Aug 29 10:55 PM, Manassas, Weather by CustomWeather, © 2015

Note: Actual official high and low records may vary slightly from our data, if they occured in-between our weather recording intervals... More about our weather records

Advertising

Manassas weather history for previous 24 hours

 ConditionsComfort  
Time TempWeatherWind HumidityBarometerVisibility
10:55 PM
Sat, Aug 29
72 °FPassing clouds.No wind83%30.13 "Hg10 mi
10:35 PM72 °FPassing clouds.No wind83%30.13 "Hg10 mi
9:45 PM72 °FPassing clouds.No wind83%30.12 "Hg10 mi
8:45 PM75 °FClear.No wind74%30.11 "Hg10 mi
7:45 PM79 °FScattered clouds.5 mph65%30.10 "Hg10 mi
6:50 PM81 °FScattered clouds.5 mph58%30.10 "Hg10 mi
5:45 PM84 °FSunny.8 mph51%30.10 "Hg10 mi
4:55 PM84 °FSunny.10 mph51%30.11 "Hg10 mi
3:45 PM88 °FSunny.7 mph46%30.12 "Hg10 mi
2:45 PM86 °FSunny.10 mph49%30.14 "Hg10 mi
1:45 PM84 °FSunny.6 mph51%30.16 "Hg10 mi
12:45 PM82 °FSunny.8 mph55%30.18 "Hg10 mi
10:45 AM79 °FThunderstorms. Cloudy.3 mph58%30.21 "HgN/A
9:45 AM73 °FThunderstorms. Cloudy.3 mph74%30.22 "HgN/A
8:45 AM70 °FScattered clouds.No wind83%30.22 "Hg10 mi
7:45 AM64 °FSunny.No wind94%30.22 "Hg10 mi
6:45 AM63 °FClear.No wind100%30.20 "Hg10 mi
5:55 AM63 °FClear.No wind100%30.19 "Hg10 mi
5:15 AM63 °FClear.3 mph94%30.19 "Hg10 mi
4:55 AM63 °FPassing clouds.No wind100%30.19 "Hg9 mi
3:55 AM63 °FClear.No wind94%30.20 "Hg10 mi
3:35 AM63 °FClear.3 mph100%30.20 "Hg10 mi
3:15 AM63 °FClear.No wind94%30.20 "Hg10 mi
2:55 AM63 °FPassing clouds.3 mph100%30.20 "Hg9 mi
1:55 AM66 °FPartly cloudy.No wind94%30.20 "Hg10 mi
1:35 AM68 °FPartly cloudy.No wind88%30.21 "Hg10 mi
1:15 AM68 °FPassing clouds.No wind88%30.21 "Hg10 mi
12:55 AM70 °FOvercast.No wind83%30.21 "Hg10 mi
12:35 AM70 °FOvercast.No wind83%30.21 "Hg10 mi
Weather by CustomWeather, © 2015

See weather overviewHow to use our weather pages